TimeEDT,TemperatureF,Dew PointF,Humidity,Sea Level PressureIn,VisibilityMPH,Wind Direction,Wind SpeedMPH,Gust SpeedMPH,PrecipitationIn,Events,Conditions,WindDirDegrees,DateUTC
12:10 AM,71.6,68.0,88,29.85,10.0,SSW,6.9,-,N/A,,Overcast,210,2013-08-02 04:10:00
12:51 AM,71.1,69.1,93,29.84,10.0,SSW,5.8,-,N/A,,Overcast,200,2013-08-02 04:51:00
1:51 AM,71.1,69.1,93,29.83,10.0,WSW,5.8,-,N/A,,Overcast,250,2013-08-02 05:51:00
2:16 AM,71.6,69.8,94,29.81,10.0,WSW,4.6,-,N/A,,Overcast,250,2013-08-02 06:16:00
2:51 AM,70.0,68.0,93,29.80,9.0,WSW,4.6,-,N/A,,Mostly Cloudy,240,2013-08-02 06:51:00
3:51 AM,70.0,68.0,93,29.81,7.0,Calm,Calm,-,N/A,,Scattered Clouds,0,2013-08-02 07:51:00
4:12 AM,69.8,66.2,88,29.81,7.0,West,3.5,-,N/A,,Scattered Clouds,280,2013-08-02 08:12:00
4:51 AM,70.0,66.9,90,29.82,7.0,WNW,6.9,-,N/A,,Scattered Clouds,290,2013-08-02 08:51:00
5:51 AM,69.1,66.0,90,29.84,7.0,NW,8.1,-,N/A,,Scattered Clouds,310,2013-08-02 09:51:00
6:51 AM,70.0,66.9,90,29.87,8.0,West,5.8,-,N/A,,Scattered Clouds,280,2013-08-02 10:51:00
7:51 AM,72.0,64.0,76,29.88,10.0,NW,9.2,-,N/A,,Partly Cloudy,320,2013-08-02 11:51:00
8:51 AM,73.9,62.1,66,29.89,10.0,NNW,8.1,-,N/A,,Partly Cloudy,340,2013-08-02 12:51:00
9:51 AM,79.0,61.0,54,29.90,10.0,NW,5.8,-,N/A,,Scattered Clouds,320,2013-08-02 13:51:00
10:51 AM,81.0,59.0,47,29.91,10.0,West,9.2,-,N/A,,Scattered Clouds,280,2013-08-02 14:51:00
11:51 AM,82.0,57.0,42,29.91,10.0,West,9.2,-,N/A,,Scattered Clouds,260,2013-08-02 15:51:00
12:51 PM,82.0,61.0,49,29.91,10.0,SW,11.5,-,N/A,,Scattered Clouds,220,2013-08-02 16:51:00
1:51 PM,82.9,61.0,47,29.90,10.0,SW,16.1,-,N/A,,Scattered Clouds,230,2013-08-02 17:51:00
2:51 PM,84.9,59.0,41,29.89,10.0,WSW,17.3,-,N/A,,Scattered Clouds,240,2013-08-02 18:51:00
3:51 PM,81.0,62.1,52,29.89,10.0,South,16.1,-,N/A,,Scattered Clouds,180,2013-08-02 19:51:00
4:51 PM,80.1,66.0,62,29.88,10.0,South,17.3,-,N/A,,Mostly Cloudy,190,2013-08-02 20:51:00
5:51 PM,78.1,68.0,71,29.88,10.0,South,11.5,-,N/A,,Mostly Cloudy,190,2013-08-02 21:51:00
6:51 PM,81.0,62.1,52,29.86,10.0,SW,15.0,-,N/A,,Mostly Cloudy,230,2013-08-02 22:51:00
7:51 PM,80.1,61.0,52,29.89,10.0,WSW,12.7,-,N/A,,Mostly Cloudy,240,2013-08-02 23:51:00
8:51 PM,79.0,62.1,56,29.90,10.0,SW,11.5,-,N/A,,Mostly Cloudy,230,2013-08-03 00:51:00
9:51 PM,77.0,64.9,66,29.91,10.0,SW,10.4,-,N/A,,Mostly Cloudy,220,2013-08-03 01:51:00
10:51 PM,75.9,64.9,69,29.92,10.0,WSW,11.5,-,N/A,,Mostly Cloudy,240,2013-08-03 02:51:00
11:51 PM,75.9,64.0,67,29.93,10.0,WSW,10.4,-,N/A,,Mostly Cloudy,240,2013-08-03 03:51:00